Home > Weather > Medina > Past weeks

Flag for Saudi Arabia Weather for the Past 2 Weeks in Medina, Saudi Arabia

Now
88 °F

Scattered clouds.


Feels Like: 85 °F
Forecast: 69 / 100 °F
Wind: No wind

Location: Madinah

Current Time: May 5, 2016 at 8:29:24 AM

Latest Report: May 5, 2016 at 8:00 AM


Visibility: N/A

Pressure: 29.95 "Hg (27.98 "Hg at 606m altitude)

Humidity: 27%

Dew Point: 50 °F

Location of MedinaLocation

Historic Weather in Medina — Graph

°F

Medina Temperature Yesterday

Maximum temperature yesterday: 104 °F (at 1:00 PM)
Minimum temperature yesterday: 84 °F (at 4:00 AM)
Average temperature yesterday: 94 °F

High & Low Weather Summary for the Past Weeks

 TemperatureHumidityPressure
High104 °F (May 3, 4:00 PM)100% (Apr 29, 5:00 PM)30.09 "Hg (Apr 29, 5:00 PM)
Low68 °F (Apr 30, 4:00 AM)5% (Apr 24, 5:00 PM)29.80 "Hg (Apr 24, 5:00 PM)
Average87 °F26%29.96 "Hg
* Reported Apr 20 7:00 AM — May 5 7:00 AM, Medina, Weather by CustomWeather, © 2016

Note: Actual official high and low records may vary slightly from our data, if they occured in-between our weather recording intervals... More about our weather records

Advertising

Medina Weather History for the Previous 24 Hours

Scroll right to see more
 ConditionsComfort  
Time TempWeatherWind HumidityBarometerVisibility
7:00 AM
Thu, May 5
88 °FScattered clouds.6 mph25%29.92 "HgN/A
6:00 AM86 °FScattered clouds.No wind29%29.92 "HgN/A
5:00 AM86 °FClear.No wind29%29.92 "Hg10 mi
4:00 AM86 °FClear.9 mph29%29.92 "Hg10 mi
3:00 AM88 °FClear.No wind19%29.92 "Hg10 mi
2:00 AM88 °FPassing clouds.No wind21%29.92 "HgN/A
1:00 AM90 °FPassing clouds.No wind18%29.95 "HgN/A
12:00 AM91 °FPassing clouds.No wind15%29.95 "HgN/A
11:00 PM
Wed, May 4
93 °FPassing clouds.6 mph13%29.92 "HgN/A
10:00 PM95 °FPassing clouds.6 mph12%29.92 "HgN/A
9:00 PM95 °FPassing clouds.10 mph11%29.92 "HgN/A
8:00 PM97 °FPassing clouds.16 mph11%29.89 "HgN/A
7:00 PM95 °FPassing clouds.21 mph14%29.89 "Hg5 mi
6:00 PM97 °FPartly sunny.22 mph13%29.86 "Hg4 mi
5:00 PM102 °FPartly sunny.9 mph7%29.86 "HgN/A
4:00 PM104 °FScattered clouds.7 mph6%29.86 "HgN/A
3:00 PM104 °FScattered clouds.7 mph7%29.89 "HgN/A
2:00 PM104 °FScattered clouds.5 mph6%29.92 "HgN/A
1:00 PM104 °FSunny.5 mph7%29.95 "Hg10 mi
12:00 PM102 °FSunny.6 mph9%29.98 "Hg10 mi
11:00 AM99 °FSunny.5 mph10%29.98 "Hg10 mi
10:00 AM97 °FSunny.5 mph9%30.01 "Hg10 mi
9:00 AM91 °FSunny.5 mph11%30.01 "Hg10 mi
8:00 AM86 °FSunny.No wind22%29.98 "Hg10 mi
Weather by CustomWeather, © 2016

See weather overviewHow to use our weather pages